Regional Weather Roundup
Issued by NWS Albany, NY

Home | Current Version | Previous Version | Graphics & Text | Print | Product List | Glossary Off
Versions: 1 2 3 4 5 6 7 8 9 10 11 12 13 14 15 16 17 18 19 20 21 22 23 24 25 26 27 28 29 30 31 32 33 34 35 36 37 38 39 40 41 42 43 44 45 46 47 48 49 50

000
ASUS41 KALY 250210
RWRALY

NEW YORK STATE HOURLY WEATHER ROUNDUP
NATIONAL WEATHER SERVICE ALBANY NY
900 PM EST MON NOV 24 2014

NOTE: "FAIR" INDICATES FEW OR NO CLOUDS BELOW 12,000 FEET WITH NO
SIGNIFICANT WEATHER AND/OR NO OBSTRUCTIONS TO VISIBILITY.

NYZ032-033-038>043-046>054-057>066-NYZ062>081-250300-
EAST


CITY           SKY/WX    TMP DP  RH WIND       PRES   REMARKS
ALBANY         PTCLDY    64  52  64 S15G22    29.58R
GLENS FALLS    CLEAR     62  51  67 S16G22    29.51R
POUGHKEEPSIE   CLEAR     67  53  61 S5        29.65R
NEWBURGH       CLEAR     64  55  72 SW9G16    29.67R
MONTGOMERY     CLEAR     62  53  72 S9        29.65R
WHITE PLAINS   CLEAR     61  54  77 S9        29.71R
ISLIP          MOCLDY    58  56  93 SW18G26   29.73R
NEW YORK CITY  CLEAR     64  56  75 SW12      29.71R
CENTRAL PARK   CLEAR     65  55  70 VRB5      29.73R
$$

NYZ005>009-017-018-044>046-055-056-250300-
CENTRAL


CITY           SKY/WX    TMP DP  RH WIND       PRES   REMARKS
FULTON         PTCLDY    53  45  74 NW10      29.54R
SYRACUSE       PTCLDY    60  46  59 SW16G26   29.53R
ROME           MOCLDY    58  48  69 W13       29.56R
ELMIRA         PTCLDY    64  37  36 SW22G44   29.57R
BINGHAMTON     PTCLDY    59  49  69 SW15G24   29.59R
MONTICELLO     CLEAR     57  52  82 SW10G17   29.67R
$$

NYZ026>034-041>043-250300-
NORTH


CITY           SKY/WX    TMP DP  RH WIND       PRES   REMARKS
WATERTOWN      CLEAR     51  39  63 W13G23    29.53R
FORT DRUM      NOT AVBL
MASSENA        PTCLDY    55  43  63 SW38G51   29.42R
SARANAC LAKE   MOCLDY    51  32  48 SW14G25   29.46R
PLATTSBURGH    LGT RAIN  58  52  80 W9        29.45
$$

NYZ001>004-010>016-019>021-250300-
WEST


CITY           SKY/WX    TMP DP  RH WIND       PRES   REMARKS
NIAGARA FALLS  PTCLDY    43  34  70 SW30G48   29.58R
BUFFALO        MOCLDY    44  36  73 SW25G39   29.60R
DUNKIRK        MOCLDY    44  38  79 SW15G24   29.64R
JAMESTOWN      PTCLDY    45  32  61 SW25G32   29.64R
WELLSVILLE     CLEAR     51  37  58 W17G28    29.61R
ROCHESTER      CLEAR     47  38  71 W23G30    29.58R
PENN YAN       CLEAR     56  44  64 SW13      29.55R
$$

             KEY
       WCI = WIND CHILL INDEX
       VSB = VISIBILITY
       HX  = HEAT INDEX
$$


USA.gov is the U.S. government's official web portal to all federal, state and local government web resources and services.